FW8355 Weather Reports


Display with metric or nautical units.
time (UTC)temp
F
wind
direction
speed
MPH
gust
MPH
rain 1hr
in
rain 24hr
in
rain mn
in
humidity
%
barometer
mb
20260509100017 74 113 6.0 13.0 0.00 0.00 0.00 50 1014.2
20260509095036 74 90 5.0 14.0 0.00 0.00 0.00 49 1014.1
20260509094017 74 113 8.0 13.0 0.00 0.00 0.00 49 1014.2
20260509093017 74 113 7.0 16.0 0.00 0.00 0.00 51 1014.2
20260509092017 73 90 6.0 12.0 0.00 0.00 0.00 50 1014.3
20260509091017 73 113 7.0 14.0 0.00 0.00 0.00 50 1014.3
20260509090037 72 113 8.0 14.0 0.00 0.00 0.00 50 1014.3
20260509085017 72 90 8.0 13.0 0.00 0.00 0.00 49 1014.3
20260509084017 72 90 7.0 16.0 0.00 0.00 0.00 51 1014.3
20260509083017 71 90 7.0 13.0 0.00 0.00 0.00 52 1014.2
20260509082017 71 90 8.0 18.0 0.00 0.00 0.00 51 1014.2
20260509081017 70 90 9.0 16.0 0.00 0.00 0.00 57 1014.2
20260509080017 70 90 6.0 11.0 0.00 0.00 0.00 59 1014.2
20260509075017 69 68 5.0 11.0 0.00 0.00 0.00 61 1014.1
20260509074019 69 113 4.0 11.0 0.00 0.00 0.00 64 1014.2
20260509073017 68 113 4.0 9.0 0.00 0.00 0.00 64 1014.4
20260509072017 67 90 3.0 8.0 0.00 0.00 0.00 64 1014.5
20260509071037 67 68 3.0 6.0 0.00 0.00 0.00 65 1014.6
20260509070037 66 90 4.0 8.0 0.00 0.00 0.00 66 1014.7
20260509065017 65 113 4.0 7.0 0.00 0.00 0.00 70 1014.8
20260509064017 65 113 2.0 5.0 0.00 0.00 0.00 71 1014.9
20260509063017 64 113 4.0 7.0 0.00 0.00 0.00 71 1014.8
20260509062017 64 113 2.0 7.0 0.00 0.00 0.00 71 1014.9
20260509061017 63 90 2.0 5.0 0.00 0.00 0.00 75 1014.9
20260509060017 62 113 1.0 4.0 0.00 0.00 0.00 75 1014.8
20260509055037 61 90 1.0 5.0 0.00 0.00 0.00 78 1014.8
20260509054037 60 113 2.0 5.0 0.00 0.00 0.00 78 1014.9
20260509053017 61 113 3.0 8.0 0.00 0.00 0.00 76 1014.8
20260509052017 60 45 3.0 5.0 0.00 0.00 0.00 75 1014.8
20260509051017 60 23 2.0 5.0 0.00 0.00 0.00 77 1014.7
20260509050017 58 23 3.0 6.0 0.00 0.00 0.00 78 1014.7
20260509045017 58 23 1.0 3.0 0.00 0.00 0.00 81 1014.5
20260509044017 56 0.0 2.0 0.00 0.00 0.00 83 1014.5
20260509043057 55 23 1.0 4.0 0.00 0.00 0.00 84 1014.2
20260509042017 55 0.0 0.0 0.00 0.00 0.00 84 1014.1
20260509041017 55 23 1.0 3.0 0.00 0.00 0.00 84 1014.0
20260509040017 55 0 2.0 4.0 0.00 0.00 0.00 84 1013.9
20260509035017 54 45 3.0 5.0 0.00 0.00 0.00 85 1013.7
20260509034017 55 0.0 0.0 0.00 0.00 0.00 85 1013.8
20260509033016 55 23 1.0 2.0 0.00 0.00 0.00 85 1013.8
20260509032037 55 338 1.0 4.0 0.00 0.00 0.00 86 1013.8
20260509031016 54 23 2.0 4.0 0.00 0.00 0.00 87 1013.9
20260509030037 54 0.0 1.0 0.00 0.00 0.00 86 1013.9
20260509025017 54 338 2.0 3.0 0.00 0.00 0.00 86 1013.9
20260509024016 54 338 1.0 2.0 0.00 0.00 0.00 87 1014.0
20260509023017 54 23 1.0 3.0 0.00 0.00 0.00 87 1014.0
20260509022036 53 0.0 0.0 0.00 0.00 0.00 87 1013.8
20260509021037 54 0.0 0.0 0.00 0.00 0.00 87 1013.8
20260509020017 54 0.0 1.0 0.00 0.00 0.00 86 1013.7
20260509015016 54 0.0 0.0 0.00 0.00 0.00 86 1013.7
20260509014016 53 0.0 0.0 0.00 0.00 0.00 87 1013.6
20260509013016 53 0.0 0.0 0.00 0.00 0.00 86 1013.4
20260509012017 53 0.0 1.0 0.00 0.00 0.00 87 1013.3
20260509011016 53 0.0 3.0 0.00 0.00 0.00 86 1013.3
20260509010016 53 0.0 3.0 0.00 0.00 0.00 87 1013.2
20260509005016 53 0.0 1.0 0.00 0.00 0.00 87 1013.2
20260509004036 53 0.0 3.0 0.00 0.00 0.00 86 1013.0
20260509003016 53 0.0 0.0 0.00 0.00 0.00 86 1013.1
20260509002016 54 0.0 3.0 0.00 0.00 0.00 86 1013.1
20260509001016 54 0.0 3.0 0.00 0.00 0.00 85 1013.1
20260509000016 55 0.0 0.0 0.00 0.00 0.00 86 1013.1
20260508235016 55 0.0 0.0 0.00 0.00 0.00 86 1013.1
20260508234036 56 0.0 0.0 0.00 0.00 0.00 85 1013.3
20260508233016 56 0.0 0.0 0.00 0.00 0.00 85 1013.3
20260508232016 56 0.0 1.0 0.00 0.00 0.00 84 1013.2
20260508231016 57 0.0 3.0 0.00 0.00 0.00 82 1013.2
20260508230016 58 23 2.0 4.0 0.00 0.00 0.00 82 1013.2
20260508225016 58 23 2.0 5.0 0.00 0.00 0.00 82 1013.1
20260508224016 58 23 3.0 8.0 0.00 0.00 0.00 81 1013.1
20260508223016 59 23 3.0 6.0 0.00 0.00 0.00 78 1013.1
20260508222036 59 45 1.0 5.0 0.00 0.00 0.00 77 1013.1
20260508221016 59 23 4.0 8.0 0.00 0.00 0.00 78 1013.2
20260508220016 58 23 3.0 7.0 0.00 0.00 0.00 81 1013.3
20260508215016 59 45 3.0 5.0 0.00 0.00 0.00 80 1013.4
20260508214016 59 23 5.0 7.0 0.00 0.00 0.00 81 1013.4
20260508213016 59 23 3.0 5.0 0.00 0.00 0.00 79 1013.4
20260508212017 59 45 3.0 5.0 0.00 0.00 0.00 77 1013.5
20260508211038 60 23 3.0 7.0 0.00 0.00 0.00 77 1013.4
20260508210017 59 23 3.0 8.0 0.00 0.00 0.00 78 1013.3
20260508205016 59 23 3.0 7.0 0.00 0.00 0.00 80 1013.2
20260508204037 59 45 2.0 6.0 0.00 0.00 0.00 79 1013.1
20260508203016 59 45 3.0 6.0 0.00 0.00 0.00 75 1013.1
20260508202017 60 45 3.0 7.0 0.00 0.00 0.00 75 1013.1
20260508201016 60 45 3.0 8.0 0.00 0.00 0.00 73 1013.2
20260508200017 60 23 4.0 8.0 0.00 0.00 0.00 73 1013.0
20260508195036 60 68 4.0 11.0 0.00 0.00 0.00 73 1012.9
20260508194016 60 68 3.0 7.0 0.00 0.00 0.00 73 1012.7
20260508193016 60 68 2.0 5.0 0.00 0.00 0.00 73 1012.5
20260508192016 61 45 4.0 10.0 0.00 0.00 0.00 73 1012.6
20260508191016 61 45 4.0 10.0 0.00 0.00 0.00 72 1012.7
20260508190036 61 23 3.0 7.0 0.00 0.00 0.00 72 1012.6
20260508185056 61 45 5.0 13.0 0.00 0.00 0.00 71 1012.4
20260508184016 61 68 6.0 14.0 0.00 0.00 0.00 70 1012.4
20260508183016 62 68 8.0 14.0 0.00 0.00 0.00 70 1012.0
20260508182016 62 68 6.0 11.0 0.00 0.00 0.00 70 1011.7
20260508181016 61 68 7.0 13.0 0.00 0.00 0.00 71 1011.6
20260508180016 62 113 5.0 14.0 0.00 0.00 0.00 71 1011.5
20260508175016 62 90 5.0 10.0 0.00 0.00 0.00 70 1011.2
20260508174036 62 68 4.0 11.0 0.00 0.00 0.00 71 1011.0
20260508173036 63 68 5.0 11.0 0.00 0.00 0.00 70 1010.9
20260508172016 63 68 5.0 10.0 0.00 0.00 0.00 70 1010.8
20260508171017 64 45 5.0 10.0 0.00 0.00 0.00 69 1010.7
20260508170056 64 90 5.0 11.0 0.00 0.00 0.00 69 1010.4
20260508165036 65 68 2.0 11.0 0.00 0.00 0.00 68 1010.3
20260508164016 66 0.0 2.0 0.00 0.00 0.00 68 1010.2
20260508163016 66 113 1.0 3.0 0.00 0.00 0.00 69 1010.1
20260508162016 65 0.0 2.0 0.00 0.00 0.00 71 1010.1
20260508161016 65 0.0 2.0 0.00 0.00 0.00 71 1009.9
20260508160036 65 90 2.0 5.0 0.00 0.00 0.00 71 1010.0
20260508155016 65 68 3.0 6.0 0.00 0.00 0.00 72 1009.9
20260508154036 66 68 3.0 7.0 0.00 0.00 0.00 71 1009.9
20260508153036 67 68 5.0 11.0 0.00 0.00 0.00 69 1009.8
20260508152016 69 0.0 4.0 0.00 0.00 0.00 68 1009.7
20260508151017 70 203 1.0 5.0 0.00 0.00 0.00 67 1009.7
20260508150016 69 203 1.0 4.0 0.00 0.00 0.00 67 1009.8
20260508145016 69 203 3.0 6.0 0.00 0.00 0.00 65 1009.7
20260508144016 68 113 2.0 6.0 0.00 0.00 0.00 66 1009.7
20260508143016 68 68 3.0 5.0 0.00 0.00 0.00 68 1009.6
20260508142016 68 113 3.0 7.0 0.00 0.00 0.00 67 1009.7
20260508141016 68 113 1.0 5.0 0.00 0.00 0.00 68 1009.7
20260508140016 68 90 3.0 7.0 0.00 0.00 0.00 69 1009.8
20260508135016 68 90 3.0 9.0 0.00 0.00 0.00 71 1009.8
20260508134036 68 45 3.0 6.0 0.00 0.00 0.00 72 1009.9
20260508133036 68 68 2.0 6.0 0.00 0.00 0.00 72 1009.8
20260508132016 69 90 4.0 12.0 0.00 0.00 0.00 68 1009.9
20260508131016 69 203 1.0 5.0 0.00 0.00 0.00 66 1009.8
20260508130016 69 270 3.0 8.0 0.00 0.00 0.00 66 1009.7
20260508125016 70 270 4.0 12.0 0.00 0.00 0.00 64 1009.7
20260508124035 70 203 2.0 5.0 0.00 0.00 0.00 64 1009.6
20260508123015 70 225 3.0 8.0 0.00 0.00 0.00 65 1009.5
20260508122015 70 248 2.0 6.0 0.00 0.00 0.00 64 1009.5
20260508121035 70 203 3.0 6.0 0.00 0.00 0.00 64 1009.4
20260508120016 70 203 3.0 6.0 0.00 0.00 0.00 63 1009.4
20260508115015 71 270 1.0 8.0 0.00 0.00 0.00 64 1009.3
20260508114016 70 203 3.0 9.0 0.00 0.00 0.00 63 1009.3
20260508113016 70 225 2.0 7.0 0.00 0.00 0.00 63 1009.3
20260508112015 71 248 3.0 8.0 0.00 0.00 0.00 62 1009.3
20260508111015 71 203 1.0 2.0 0.00 0.00 0.00 61 1009.2
20260508110015 71 203 1.0 6.0 0.00 0.00 0.00 60 1009.2
20260508105015 70 90 1.0 3.0 0.00 0.00 0.00 63 1009.2
20260508104017 70 68 1.0 3.0 0.00 0.00 0.00 62 1009.2
20260508103017 71 225 2.0 6.0 0.00 0.00 0.00 62 1009.4
20260508102017 70 90 3.0 9.0 0.00 0.00 0.00 62 1009.3
20260508101017 70 158 4.0 9.0 0.00 0.00 0.00 62 1009.3
20260508100055 69 113 4.0 12.0 0.00 0.00 0.00 66 1009.2